• In India
  • List of Countries
  • For 7 days
  • Water Temperature
  • Satellite Maps
  • Weather Map
  • Weather Widgets
  • user-avatar
    Login

    Hourly Weather Chachagui

    Today, 24 May, Thursday

    Time Temperature Precipitation Wind Pressure Humidity
    00:00 +15°C° 0.3 mm 1 mps 606 mmHg 88%
    01:00 +15°C° 0 mm 1 mps 606 mmHg 89%
    02:00 +15°C° 0.5 mm 1 mps 606 mmHg 89%
    03:00 +15°C° 0.5 mm 1 mps 605 mmHg 89%
    04:00 +15°C° 0.5 mm 1 mps 605 mmHg 90%
    05:00 +15°C° 0.5 mm 1 mps 606 mmHg 89%
    06:00 +16°C° 0.5 mm 1 mps 606 mmHg 88%
    07:00 +16°C° 0 mm 1 mps 607 mmHg 83%
    08:00 +17°C° 0.3 mm 2 mps 607 mmHg 81%
    09:00 +18°C° 0.3 mm 2 mps 608 mmHg 78%
    10:00 +19°C° 0.3 mm 2 mps 608 mmHg 76%
    11:00 +19°C° 0.4 mm 2 mps 608 mmHg 75%
    12:00 +19°C° 0.4 mm 2 mps 608 mmHg 74%
    13:00 +20°C° 0.4 mm 2 mps 608 mmHg 73%
    14:00 +20°C° 0.4 mm 2 mps 607 mmHg 73%
    15:00 +20°C° 0.4 mm 2 mps 607 mmHg 73%
    16:00 +20°C° 0.4 mm 2 mps 606 mmHg 74%
    17:00 +19°C° 0.4 mm 2 mps 606 mmHg 78%
    18:00 +18°C° 0.4 mm 2 mps 606 mmHg 82%
    19:00 +16°C° 0.4 mm 2 mps 605 mmHg 87%
    20:00 +16°C° 0.1 mm 2 mps 606 mmHg 86%
    21:00 +16°C° 0.1 mm 2 mps 606 mmHg 86%
    22:00 +15°C° 0.1 mm 2 mps 606 mmHg 85%
    23:00 +15°C° 0 mm 2 mps 606 mmHg 85%

    Tomorrow, 25 May, Friday

    Time Temperature Precipitation Wind Pressure Humidity
    00:00 +15°C° 0 mm 2 mps 606 mmHg 84%
    01:00 +15°C° 0 mm 2 mps 605 mmHg 83%
    02:00 +15°C° 0.1 mm 2 mps 605 mmHg 83%
    03:00 +15°C° 0.1 mm 2 mps 605 mmHg 83%
    04:00 +15°C° 0.1 mm 2 mps 605 mmHg 83%
    05:00 +16°C° 0.1 mm 2 mps 605 mmHg 83%
    06:00 +16°C° 0.1 mm 1 mps 605 mmHg 82%
    07:00 +16°C° 0.1 mm 1 mps 606 mmHg 81%
    08:00 +18°C° 0.1 mm 2 mps 606 mmHg 76%
    09:00 +19°C° 0.1 mm 2 mps 607 mmHg 71%
    10:00 +20°C° 0.1 mm 3 mps 608 mmHg 66%
    11:00 +21°C° 0.2 mm 3 mps 608 mmHg 65%
    12:00 +21°C° 0.2 mm 3 mps 607 mmHg 64%
    13:00 +22°C° 0.2 mm 3 mps 607 mmHg 63%
    14:00 +21°C° 0.5 mm 3 mps 607 mmHg 66%
    15:00 +21°C° 0.5 mm 3 mps 606 mmHg 69%
    16:00 +20°C° 0.5 mm 2 mps 605 mmHg 72%
    17:00 +19°C° 0.3 mm 2 mps 605 mmHg 77%
    18:00 +17°C° 0.3 mm 2 mps 605 mmHg 83%
    19:00 +16°C° 0.3 mm 1 mps 604 mmHg 88%
    20:00 +16°C° 0.2 mm 1 mps 605 mmHg 87%
    21:00 +15°C° 0.2 mm 1 mps 605 mmHg 86%
    22:00 +15°C° 0.2 mm 1 mps 605 mmHg 85%
    23:00 +15°C° 0.1 mm 1 mps 605 mmHg 85%

    Day after tomorrow, 26 May, Saturday

    Time Temperature Precipitation Wind Pressure Humidity
    00:00 +15°C° 0.1 mm 1 mps 605 mmHg 84%
    01:00 +16°C° 0.1 mm 1 mps 605 mmHg 83%
    02:00 +15°C° 0 mm 1 mps 605 mmHg 84%
    03:00 +15°C° 0 mm 1 mps 604 mmHg 85%
    04:00 +15°C° 0 mm 1 mps 604 mmHg 86%
    05:00 +16°C° 0 mm 1 mps 604 mmHg 85%
    06:00 +16°C° 0 mm 1 mps 605 mmHg 84%
    07:00 +16°C° 0 mm 1 mps 605 mmHg 83%
    08:00 +18°C° 0.1 mm 2 mps 606 mmHg 78%
    09:00 +19°C° 0.1 mm 2 mps 607 mmHg 74%
    10:00 +20°C° 0.1 mm 2 mps 607 mmHg 69%
    11:00 +20°C° 0.4 mm 2 mps 607 mmHg 71%
    12:00 +20°C° 0.4 mm 2 mps 607 mmHg 73%
    13:00 +20°C° 0.4 mm 2 mps 606 mmHg 75%
    14:00 +19°C° 1.4 mm 2 mps 606 mmHg 78%
    15:00 +19°C° 1.4 mm 1 mps 605 mmHg 81%
    16:00 +19°C° 1.4 mm 1 mps 604 mmHg 83%
    17:00 +18°C° 0.6 mm 1 mps 604 mmHg 85%
    18:00 +18°C° 0.6 mm 1 mps 604 mmHg 87%
    19:00 +16°C° 0.6 mm 1 mps 604 mmHg 88%
    20:00 +16°C° 0.4 mm 1 mps 605 mmHg 88%
    21:00 +15°C° 0.4 mm 1 mps 605 mmHg 88%
    22:00 +15°C° 0.4 mm 1 mps 605 mmHg 89%
    23:00 +15°C° 0.1 mm 1 mps 605 mmHg 88%

    27 May, Sunday

    Time Temperature Precipitation Wind Pressure Humidity
    00:00 +15°C° 0.1 mm 1 mps 605 mmHg 88%
    01:00 +15°C° 0.1 mm 1 mps 605 mmHg 88%
    02:00 +15°C° 0 mm 1 mps 605 mmHg 88%
    03:00 +15°C° 0 mm 1 mps 604 mmHg 88%
    04:00 +15°C° 0 mm 1 mps 604 mmHg 88%
    05:00 +15°C° 0.1 mm 1 mps 604 mmHg 87%
    06:00 +16°C° 0.1 mm 1 mps 605 mmHg 87%
    07:00 +16°C° 0.1 mm 1 mps 605 mmHg 86%
    08:00 +18°C° 0.1 mm 1 mps 606 mmHg 83%
    09:00 +18°C° 0.1 mm 2 mps 606 mmHg 79%
    10:00 +19°C° 0.1 mm 2 mps 607 mmHg 76%
    11:00 +19°C° 0.2 mm 2 mps 607 mmHg 75%
    12:00 +20°C° 0.2 mm 2 mps 607 mmHg 74%
    13:00 +20°C° 0.2 mm 2 mps 606 mmHg 73%
    14:00 +20°C° 0.4 mm 2 mps 606 mmHg 74%
    15:00 +20°C° 0.4 mm 2 mps 605 mmHg 76%
    16:00 +19°C° 0.4 mm 2 mps 605 mmHg 77%
    17:00 +18°C° 0.4 mm 2 mps 605 mmHg 81%
    18:00 +17°C° 0.4 mm 2 mps 605 mmHg 85%
    19:00 +16°C° 0.4 mm 1 mps 605 mmHg 90%
    20:00 +16°C° 0.4 mm 1 mps 605 mmHg 88%
    21:00 +16°C° 0.4 mm 1 mps 606 mmHg 87%
    22:00 +15°C° 0.4 mm 1 mps 606 mmHg 86%
    23:00 +15°C° 0.2 mm 1 mps 606 mmHg 85%

    28 May, Monday

    Time Temperature Precipitation Wind Pressure Humidity
    00:00 +15°C° 0.2 mm 1 mps 605 mmHg 85%
    01:00 +15°C° 0.2 mm 1 mps 605 mmHg 84%
    02:00 +15°C° 0.1 mm 1 mps 605 mmHg 85%
    03:00 +15°C° 0.1 mm 1 mps 605 mmHg 85%
    04:00 +15°C° 0.1 mm 1 mps 604 mmHg 85%
    05:00 +15°C° 0 mm 1 mps 605 mmHg 84%
    06:00 +16°C° 0 mm 1 mps 605 mmHg 83%
    07:00 +16°C° 0 mm 1 mps 606 mmHg 82%
    08:00 +18°C° 0 mm 1 mps 607 mmHg 78%
    09:00 +19°C° 0 mm 2 mps 607 mmHg 75%
    10:00 +20°C° 0 mm 2 mps 608 mmHg 71%
    11:00 +20°C° 0.3 mm 2 mps 608 mmHg 73%
    12:00 +19°C° 0.3 mm 2 mps 607 mmHg 74%
    13:00 +19°C° 0.3 mm 2 mps 607 mmHg 76%
    14:00 +19°C° 0.6 mm 2 mps 606 mmHg 78%
    15:00 +19°C° 0.6 mm 2 mps 606 mmHg 79%
    16:00 +19°C° 0.6 mm 1 mps 605 mmHg 81%
    17:00 +19°C° 0.4 mm 1 mps 605 mmHg 85%
    18:00 +18°C° 0.4 mm 1 mps 605 mmHg 89%
    19:00 +16°C° 0.4 mm 1 mps 605 mmHg 93%
    20:00 +16°C° 0.3 mm 1 mps 606 mmHg 93%
    21:00 +16°C° 0.3 mm 1 mps 606 mmHg 92%
    22:00 +15°C° 0.3 mm 1 mps 607 mmHg 92%
    23:00 +15°C° 0.4 mm 1 mps 606 mmHg 92%

    29 May, Tuesday

    Time Temperature Precipitation Wind Pressure Humidity
    00:00 +15°C° 0.4 mm 1 mps 606 mmHg 92%
    01:00 +15°C° 0.4 mm 1 mps 605 mmHg 92%
    02:00 +14°C° 0.5 mm 0 mps 605 mmHg 92%
    03:00 +14°C° 0.5 mm 0 mps 605 mmHg 92%
    04:00 +14°C° 0.5 mm 0 mps 605 mmHg 91%
    05:00 +14°C° 0.4 mm 0 mps 605 mmHg 91%
    06:00 +14°C° 0.4 mm 0 mps 605 mmHg 91%
    07:00 +14°C° 0.4 mm 0 mps 606 mmHg 90%
    08:00 +15°C° 0.4 mm 0 mps 606 mmHg 88%
    09:00 +18°C° 0.4 mm 1 mps 607 mmHg 85%
    10:00 +18°C° 0.4 mm 1 mps 607 mmHg 83%
    11:00 +19°C° 0.5 mm 1 mps 607 mmHg 81%
    12:00 +19°C° 0.5 mm 1 mps 607 mmHg 80%
    13:00 +20°C° 0.5 mm 1 mps 606 mmHg 78%
    14:00 +20°C° 0.6 mm 1 mps 606 mmHg 80%
    15:00 +19°C° 0.6 mm 1 mps 605 mmHg 81%
    16:00 +19°C° 0.6 mm 1 mps 605 mmHg 83%
    17:00 +18°C° 0.5 mm 1 mps 605 mmHg 87%
    18:00 +16°C° 0.5 mm 0 mps 605 mmHg 90%
    19:00 +15°C° 0.5 mm 0 mps 605 mmHg 94%
    20:00 +15°C° 0.4 mm 0 mps 605 mmHg 93%
    21:00 +15°C° 0.4 mm 0 mps 606 mmHg 92%
    22:00 +15°C° 0.4 mm 0 mps 606 mmHg 91%
    23:00 +15°C° 0.3 mm 0 mps 606 mmHg 91%
    Show more